Location: Baia Mare
(47.6567°N, 23.5850°E)
Time: 14:20:29
(UTC+03:00)

ISS - Pass Details

Date: 09 July 2019
Orbit: 409 x 418 km, 51.6° (Epoch: 21 July)

Event Time Altitude Azimuth Distance (km) Brightness Sun altitude
Exits shadow 03:29:35 21° 259° (W) 974 -2.3 -15.0°
Maximum altitude 03:31:37 69° 340° (NNW) 443 -3.6 -14.9°
Drops below altitude 10° 03:34:55 10° 64° (ENE) 1,479 -0.1 -14.6°
Sets 03:37:01 0° 67° (ENE) 2,341 0.9 -14.4°
